Regional Weather Roundup
Issued by NWS Cleveland, OH

Home | Current Version | Previous Version | Graphics & Text | Print | Product List | Glossary On
Versions: 1 2 3 4 5 6 7 8 9 10 11 12 13 14 15 16 17 18 19 20 21 22 23 24 25 26 27 28 29 30 31 32 33 34 35 36 37 38 39 40 41 42 43 44 45 46 47 48 49 50
000
ASUS41 KCLE 060802
RWRCLE
OHIO REGIONAL WEATHER ROUNDUP
NATIONAL WEATHER SERVICE CLEVELAND, OH
300 AM EST FRI MAR 06 2015

NOTE: "FAIR" INDICATES FEW OR NO CLOUDS BELOW 12,000 FEET WITH NO
SIGNIFICANT WEATHER AND/OR OBSTRUCTIONS TO VISIBILITY.

OHZ001>008-015>018-024>027-034-035-043-044-060900-
   NORTHWEST OHIO

CITY           SKY/WX    TMP DP  RH WIND       PRES   REMARKS
DEFIANCE       MOCLDY     3  -1  83 CALM      30.53S
FINDLAY        MOCLDY     4  -1  80 SW6       30.50S WCI  -7
TOLEDO EXPRESS PTCLDY    -1  -5  82 W5        30.51S WCI -11
TOLEDO EXEC    PTCLDY     5  -2  72 SW5       30.52S WCI  -4
LIMA           MOCLDY     9   5  84 SW5       30.50S WCI   1
$$

OHZ009>014-019>023-028>033-038-089-060900-
   NORTHEAST OHIO

CITY           SKY/WX    TMP DP  RH WIND       PRES   REMARKS
CLE-HOPKINS    PTCLDY     5  -1  76 SW7       30.53S WCI  -7
CLE-LAKEFRONT  PTCLDY     9   2  73 S7        30.51F WCI  -2
CUY CO. ARPT   NOT AVBL
LORAIN-ELYRIA  PTCLDY    -1  -5  82 SW3       30.51S
ASHTABULA      MOCLDY    -9 -15  75 CALM      30.49F
AKRON-CANTON   PTCLDY     1  -5  75 SW5       30.48R WCI  -9
WOOSTER        MOCLDY    -4  -7  87 CALM      30.49S
MANSFIELD      MOCLDY     5   1  83 S5        30.46F WCI  -4
YOUNGSTOWN     MOCLDY    -1  -5  82 S5        30.47S WCI -11
$$

OHZ042-051>053-060>062-070>072-077>081-060900-
  SOUTHWEST OHIO

CITY           SKY/WX    TMP DP  RH WIND       PRES   REMARKS
CINC-COVINGTON PTCLDY     4   1  88 CALM      30.53S
CINC-LUNKEN    MOCLDY     8   5  87 CALM      30.59S
HAMILTON       MOCLDY     5   1  83 CALM      30.57S
DAYTON         PTCLDY    10   5  80 W6        30.52S WCI   0
WRIGHT-PAT AFB PTCLDY     8   5  85 CALM      30.52F
DAYTON GENERAL MOCLDY    10   4  76 W3        30.52R
WILMINGTON     FAIR       2  -2  83 CALM      30.50F
$$

OHZ036-037-039>041-045>050-054>059-063>069-073>076-082>088-060900-
  CENTRAL AND SOUTHEAST OHIO

CITY           SKY/WX    TMP DP  RH WIND       PRES   REMARKS
COLUMBUS       CLEAR      6   2  83 CALM      30.53S
OSU AIRPORT    PTCLDY     7   3  84 W5        30.52R WCI  -2
BOLTON FIELD   CLEAR    N/A N/A N/A CALM      30.53R
RICKENBACK AFB NOT AVBL
NEWARK         MOCLDY    -2  -6  83 NW3       30.52S
MARION         PTCLDY     0  -5  79 S5        30.51R WCI -10
LANCASTER      PTCLDY    -2  -7  79 CALM      30.53S
ZANESVILLE     MOCLDY     0  -4  83 CALM      30.52S
NEW PHILLY     PTCLDY     4  -2  76 CALM      30.53R
$$



USA.gov is the U.S. government's official web portal to all federal, state and local government web resources and services.